Location: Gloden
(48.4833°N, 15.3167°E)
Time: 00:42:42
(UTC+00:00)

ITUPSAT 1 - Pass Details

Date: 13 May 2021
Orbit: 700 x 713 km, 98.6° (Epoch: 24 June)

Event Time Altitude Azimuth Distance (km) Brightness Sun altitude
Rises 20:09:19 0° 359° (N) 3,119 ? -13.4°
Reaches altitude 10° 20:12:50 10° 332° (NNW) 2,191 ? -13.8°
Maximum altitude 20:14:52 13° 306° (NW) 2,002 ? -14.0°
Drops below altitude 10° 20:16:55 10° 281° (W) 2,181 ? -14.2°
Sets 20:20:25 0° 253° (WSW) 3,092 ? -14.6°
